ON4BN Weather Reports


time (UTC)temp
F
wind
direction
speed
knots
gust
knots
rain 1hr
in
rain 24hr
in
rain mn
in
humidity
%
barometer
mb
20260506012532 47 8 3.5 8.7 4.08 9.70 1.41 98
20260506011524 48 347 2.6 6.1 4.08 9.70 1.34 98
20260506010532 48 330 1.7 5.2 4.10 9.69 1.28 98
20260506005524 48 343 1.7 4.3 4.11 9.69 1.21 98
20260506004528 48 347 2.6 5.2 4.09 9.69 1.14 98
20260506003524 48 359 1.7 3.5 4.06 9.69 1.07 98
20260506002554 48 347 1.7 3.5 4.10 9.69 1.00 98
20260506001528 48 348 2.6 6.1 4.08 9.69 9.40 98
20260506000532 48 344 2.6 5.2 4.03 9.69 8.70 98
20260505235524 48 345 2.6 4.3 4.00 9.69 8.00 98
20260505234524 48 351 3.5 6.1 4.04 9.69 7.34 98
20260505233524 48 358 2.6 5.2 4.02 9.69 6.67 98
20260505232532 49 356 3.5 7.0 3.95 9.69 5.98 98
20260505231544 49 343 2.6 6.1 3.98 9.69 5.31 98
20260505230533 49 4 3.5 6.1 4.00 9.69 4.67 97
20260505225524 49 350 2.6 6.1 3.99 9.69 3.99 97
20260505224521 49 356 3.5 6.1 3.95 9.69 3.30 97
20260505223523 49 347 2.6 4.3 3.99 9.69 2.64 97
20260505222532 49 348 2.6 5.2 4.02 9.69 2.02 97
20260505221524 49 349 2.6 6.1 4.02 9.69 1.33 97
20260505220532 49 347 2.6 5.2 4.00 9.70 6.72 97
20260505215549 49 346 2.6 5.2 3.99 9.70 9.70 97
20260505214534 50 351 3.5 7.8 4.03 9.69 9.63 97
20260505213524 50 359 2.6 7.8 4.02 9.69 9.56 97
20260505212532 50 14 2.6 6.1 3.99 9.69 9.49 97
20260505211524 50 352 3.5 7.0 4.00 9.69 9.43 96
20260505210532 50 357 2.6 6.1 4.03 9.69 9.36 96
20260505205525 50 340 3.5 8.7 4.06 9.69 9.30 96
20260505204552 50 357 3.5 9.6 4.01 9.69 9.23 96
20260505203606 50 355 2.6 6.1 4.01 9.69 9.16 95
20260505202532 50 354 4.3 10.4 4.07 9.69 9.10 95
20260505201524 50 340 3.5 6.1 4.07 9.68 9.03 94
20260505200527 51 348 4.3 8.7 4.04 9.68 8.96 94
20260505195524 51 3 3.5 7.8 4.06 9.68 8.89 93
20260505194533 51 358 3.5 7.8 4.09 9.68 8.82 93
20260505193525 51 357 3.5 6.1 4.08 9.68 8.76 93
20260505192531 51 8 4.3 8.7 4.04 9.68 8.69 93
20260505191523 51 345 3.5 7.8 4.04 9.68 8.62 93
20260505190710 51 360 4.3 7.0 4.07 9.68 8.55 93
20260505185524 51 1 3.5 7.8 4.06 9.68 8.48 93
20260505184532 51 12 2.6 4.3 4.02 9.68 8.41 93
20260505183524 51 1 2.6 5.2 4.03 9.68 8.35 93
20260505182533 51 354 2.6 6.1 4.07 9.68 8.28 93
20260505181524 51 8 2.6 6.1 4.06 9.68 8.21 93
20260505180519 51 1 2.6 5.2 4.02 9.68 8.15 93
20260505175525 52 0 1.7 4.3 4.03 9.68 8.08 93
20260505174532 52 17 3.5 6.1 4.04 9.67 8.01 93
20260505173525 52 1 4.3 8.7 4.04 9.67 7.94 93
20260505172534 52 352 3.5 7.0 3.98 9.67 7.88 93
20260505171523 52 359 3.5 8.7 3.97 9.67 7.81 93
20260505170533 52 358 4.3 7.8 4.02 9.67 7.74 93
20260505165524 52 359 4.3 7.8 4.01 9.67 7.67 94
20260505164532 52 1 4.3 8.7 3.97 9.67 7.61 94
20260505163524 52 350 4.3 7.8 3.97 9.67 7.54 93
20260505162532 52 0 5.2 8.7 4.02 9.67 7.48 93
20260505161524 52 355 4.3 7.8 4.03 9.67 7.41 93
20260505160533 52 6 3.5 7.0 3.97 9.67 7.34 93
20260505152548 52 357 5.2 11.3 4.01 9.67 7.07 94
20260505151524 52 4 3.5 8.7 4.02 9.67 7.01 94
20260505150532 52 17 2.6 7.8 4.07 9.67 6.94 94
20260505140533 52 354 2.6 7.0 4.07 9.66 6.54 94
20260505124533 52 5 3.5 6.1 4.04 9.65 5.99 94
20260505123524 52 34 3.5 6.1 4.03 9.64 5.92 94
20260505122532 51 21 3.5 7.8 4.07 9.64 5.86 95
20260505121525 51 357 4.3 10.4 4.06 9.64 5.79 95
20260505120533 51 2 4.3 7.0 4.02 9.64 5.72 95
20260505115525 51 12 5.2 10.4 4.01 9.64 5.65 96
20260505114533 51 355 4.3 7.0 4.06 9.64 5.59 96
20260505113523 51 0 4.3 7.8 4.07 9.64 5.52 97
20260505112617 51 358 4.3 7.8 4.01 9.64 5.45 97
20260505111525 51 16 4.3 7.8 3.99 9.64 5.38 97
20260505110536 50 352 4.3 7.8 4.03 9.63 5.32 97
20260505101525 50 12 3.5 6.1 4.07 9.64 4.98 98
20260505100531 50 24 3.5 9.6 4.01 9.64 4.91 98
20260505095524 50 358 4.3 7.8 4.02 9.64 4.84 98
20260505094521 50 6 4.3 8.7 4.02 9.63 4.78 98
20260505093524 50 18 3.5 7.8 4.02 9.63 4.71 98
20260505092532 50 358 3.5 8.7 4.01 9.64 4.64 98
20260505091519 50 3 3.5 7.0 3.97 9.64 4.57 98
20260505090556 50 357 3.5 7.8 4.03 9.64 4.51 98
20260505085527 50 2 2.6 6.1 4.03 9.64 4.44 98
20260505084557 50 4 3.5 7.8 4.01 9.64 4.38 98
20260505083523 51 2 4.3 6.1 4.02 9.64 4.31 98
20260505082531 51 7 3.5 7.0 4.06 9.63 4.24 98
20260505081524 51 339 3.5 8.7 4.09 9.64 4.18 98
20260505080532 51 345 3.5 7.0 4.07 9.64 4.11 98
20260505075523 51 358 3.5 8.7 4.06 9.63 4.04 98
20260505074533 51 353 2.6 6.1 4.11 9.63 3.97 98
20260505073524 52 23 2.6 7.0 4.11 9.63 3.91 98
20260505072554 52 356 2.6 5.2 4.07 9.63 3.84 98
20260505071525 52 354 3.5 6.1 4.07 9.63 3.77 98
20260505070528 52 18 1.7 5.2 4.08 9.62 3.70 98
20260505065524 52 10 3.5 8.7 4.09 9.62 3.63 98
20260505064558 52 23 3.5 7.0 4.06 9.62 3.56 98
20260505063529 53 38 2.6 5.2 4.04 9.62 3.49 98
20260505062531 53 11 2.6 6.1 4.08 9.62 3.43 98
20260505061525 53 33 4.3 7.8 4.08 9.61 3.36 99
20260505060524 53 6 2.6 5.2 4.07 9.61 3.29 99
20260505055525 53 358 2.6 5.2 4.06 9.61 3.22 99
20260505054532 53 9 3.5 6.1 4.07 9.61 3.16 99
20260505053524 53 9 3.5 6.1 4.08 9.61 3.09 98
20260505052532 53 353 3.5 6.1 4.03 9.61 3.02 98
20260505051525 54 356 3.5 6.1 4.03 9.61 2.95 98
20260505050520 54 347 2.6 6.1 4.03 9.60 2.88 98
20260505041527 54 212 0.9 1.7 4.01 9.60 2.55 98
20260505040531 54 217 0.9 2.6 3.97 9.60 2.48 98
20260505035523 54 230 1.7 4.3 3.98 9.60 2.41 98
20260505034536 55 217 0.9 3.5 4.00 9.60 2.35 98
20260505033523 55 208 0.9 1.7 4.00 9.61 2.28 98
20260505032533 55 214 0.9 2.6 3.98 9.61 2.21 98
20260505031525 55 211 0.9 1.7 3.98 9.61 2.15 98
20260505030532 55 0.0 0.0 4.04 9.61 2.08 98
20260505025526 55 0.0 0.0 4.01 9.61 2.01 98
20260505024533 55 200 0.0 0.9 3.99 9.61 1.95 98
20260505023523 55 0.0 0.0 4.01 9.61 1.88 98
20260505022531 55 0.0 0.0 4.04 9.61 1.82 98
20260505021544 55 208 0.9 1.7 4.05 9.61 1.75 98
20260505020533 55 0.0 0.0 4.01 9.61 1.68 98
20260505015545 55 205 0.0 1.7 4.02 9.61 1.61 98
20260505014533 55 0.0 0.9 4.06 9.61 1.55 98
20260505013523 55 0.0 0.9 4.06 9.61 1.48 98
20260505012551 55 0.0 0.0 4.04 9.61 1.41 98